STARLINK-32279, 61003

Orbit data source: Space-Track

STARLINK-32279, 61003 is a payload satellite owned by SpaceX/Seattle (US) in LEO that was launched on Thu, 05 Sep 2024 UTC via an FALCON 9 launch vehicle from the Air Force Eastern Test Range (AFETR). Payload-class satellites include a variety of spacecraft equipped with specific instruments for various scientific and technological missions. These include communications satellites like Starlink; space stations such as the ISS; scientific satellites like the Hubble; Earth observation satellites from companies like Planet Labs, Umbra, and HawkEye 360; GPS; miniature CubeSats for education and research; and military/defense satellites.

Loading next visibility...
Identifier
61003, 2024-158P
Orbit
LEO
Last TLE update
18 hours ago
Origin
Manufacturer
SpaceX/Seattle
Mission
Operational Commercial Communications
Bus & Motor
STARLINK V2M, Unknown motor
Mass
730 kg wet, ~700 kg dry
Launch date (UTC)
2024-09-05 (10 months ago)
Launch vehicle
FALCON 9
Launch site
Air Force Eastern Test Range (AFETR)
Object type
Payload
Rocket body
Debris
Shape & HBR
Box + 2 Pan, 29 m
Radar Cross Section
33.884 m², Large (>1 m²)

Expand to show TLE details & history

TLE from 18 hours ago
0 STARLINK-32279
1 61003U 24158P   25182.44380923 -.00000373  00000-0 -46830-6 0  9993
2 61003  53.1605 152.5951 0001239  85.9258 274.1885 15.30189010 47185
Epoch: 2025-07-01T10:39Z
TLE epoch observation values (Epoch: 2025-07-01T10:39:05.117Z)
Latitude
0.00003°
Longitude
73.08462°
Altitude
476.086 km
Speed
7.629 km/s
True Right ascension
10h 10m 22s
True Declination
0° 00' 00"
Sunlit
Object was in daylight at epoch
Visualization orbit readout
Latitude
53.28478°
Longitude
157.08585°
Altitude
480.967 km
Speed
7.632 km/s
Apparent Right ascension
04h 57m 26s
Apparent Declination
59° 38' 18"
Sunlit
Object is in daylight
Visualization observer readout
Local Sidereal Time
15:58:07
Azimuth
352.446° N
Elevation
10.305°
Doppler factor
1
Orbital elements
Apogee altitude
476.353 km
Perigee altitude
474.655 km
Semi-major axis
6,853.641 km
Eccentricity
0.00012
Inclination
53.1605°
RAAN
152.5951°
Arg. of periapsis
85.9258°
True anomaly
Unknown
Mean anomaly
274.1885°
Eccentric anomaly
Unknown
Mean motion
3.82526 °/min
Orbital period
94.11 mins
BSTAR
-4.683e-7
Loading maneuver chart data...
Loading SW <> Apogee altitude chart data...
Loading historical data...
Loading historical data...
Loading historical data...
Loading historical data...
Loading historical data...
Loading historical data...
Loading historical data...

STARLINK-32279 Visibility forecast

Observer location: undefined°, undefined°

Span
Click to sort rows by Start time (UTC) header in descending order
Start Az.
Max El. time (UTC)
Max El. Az.
Max El.
End time (UTC)
End Az.
5 mins2025-07-02 07:32:45.083Z312.209° NW2025-07-02 07:34:45.083Z31.962° NE44.905°2025-07-02 07:37:45.083Z128.903° SE
6 mins2025-07-03 00:27:45.083Z228.199° WSW2025-07-03 00:29:45.083Z225.342° WSW42.569°2025-07-03 00:33:45.083Z50.416° ENE
|